TimeEST,TemperatureF,Dew PointF,Humidity,Sea Level PressureIn,VisibilityMPH,Wind Direction,Wind SpeedMPH,Gust SpeedMPH,PrecipitationIn,Events,Conditions,WindDirDegrees,DateUTC
12:15 AM,33.8,32.0,93,29.58,3.0,NNW,9.2,-,N/A,,Overcast,340,2013-02-28 05:15:00
12:53 AM,34.0,32.0,92,29.61,4.0,North,10.4,-,N/A,,Overcast,350,2013-02-28 05:53:00
1:02 AM,33.8,32.0,93,29.59,4.0,NNW,10.4,-,N/A,,Overcast,340,2013-02-28 06:02:00
1:33 AM,33.8,32.0,93,29.59,2.5,North,11.5,-,N/A,,Overcast,350,2013-02-28 06:33:00
1:46 AM,33.8,32.0,93,29.59,3.0,North,11.5,-,N/A,,Overcast,350,2013-02-28 06:46:00
1:53 AM,34.0,32.0,92,29.62,5.0,North,11.5,-,N/A,,Overcast,350,2013-02-28 06:53:00
2:53 AM,34.0,32.0,92,29.64,6.0,NNW,9.2,-,N/A,,Overcast,340,2013-02-28 07:53:00
3:53 AM,34.0,32.0,92,29.65,8.0,NNW,11.5,-,N/A,,Overcast,340,2013-02-28 08:53:00
4:42 AM,33.8,30.2,87,29.64,9.0,North,11.5,-,N/A,,Overcast,350,2013-02-28 09:42:00
4:53 AM,34.0,30.9,89,29.67,8.0,NNW,11.5,-,N/A,,Overcast,340,2013-02-28 09:53:00
5:53 AM,33.1,30.9,92,29.69,4.0,NNW,12.7,-,0.00,Snow,Light Snow,330,2013-02-28 10:53:00
6:04 AM,33.8,30.2,87,29.67,2.0,NNW,11.5,-,0.00,Snow,Light Snow,340,2013-02-28 11:04:00
6:53 AM,33.1,30.9,92,29.72,4.0,NNW,13.8,-,0.00,Snow,Light Snow,340,2013-02-28 11:53:00
7:53 AM,33.1,30.0,89,29.74,10.0,North,13.8,-,0.00,,Overcast,350,2013-02-28 12:53:00
8:53 AM,33.8,30.2,87,29.74,10.0,North,11.5,-,N/A,,Overcast,350,2013-02-28 13:53:00
9:53 AM,34.0,30.0,85,29.79,10.0,NNW,10.4,-,N/A,,Overcast,340,2013-02-28 14:53:00
10:53 AM,35.1,30.0,82,29.81,10.0,North,11.5,-,N/A,,Overcast,350,2013-02-28 15:53:00
11:53 AM,35.1,30.0,82,29.82,10.0,North,12.7,-,N/A,,Overcast,350,2013-02-28 16:53:00
12:53 PM,36.0,28.9,76,29.84,10.0,NNW,13.8,-,N/A,,Overcast,340,2013-02-28 17:53:00
1:53 PM,36.0,28.9,76,29.83,10.0,North,12.7,-,N/A,,Overcast,350,2013-02-28 18:53:00
2:53 PM,36.0,28.9,76,29.85,10.0,NW,12.7,-,N/A,,Overcast,320,2013-02-28 19:53:00
3:53 PM,36.0,28.9,76,29.87,10.0,NNW,12.7,-,N/A,,Overcast,340,2013-02-28 20:53:00
4:53 PM,35.1,28.0,76,29.89,10.0,NNW,15.0,-,N/A,,Overcast,340,2013-02-28 21:53:00
5:53 PM,35.1,28.0,76,29.92,10.0,NNW,10.4,-,N/A,,Overcast,340,2013-02-28 22:53:00
6:53 PM,35.1,28.0,76,29.94,10.0,NNW,9.2,-,N/A,,Overcast,330,2013-02-28 23:53:00
7:53 PM,34.0,27.0,75,29.97,10.0,NNW,11.5,-,N/A,,Overcast,340,2013-03-01 00:53:00
8:53 PM,33.1,28.0,82,29.99,10.0,NW,8.1,-,N/A,,Overcast,320,2013-03-01 01:53:00
9:53 PM,33.1,27.0,78,29.99,10.0,North,10.4,-,N/A,,Overcast,350,2013-03-01 02:53:00
10:53 PM,32.0,27.0,82,30.00,7.0,North,12.7,-,N/A,,Overcast,360,2013-03-01 03:53:00
11:53 PM,30.9,28.0,89,30.00,6.0,North,8.1,-,N/A,,Overcast,10,2013-03-01 04:53:00